CZ-3B DEB, 40845

Orbit data source: Space-Track

CZ-3B DEB, 40845 is space debris in HEO originally from a launch on Mon, 19 Dec 2011 UTC launched from the Xichang Space Center, China (XSC). Debris objects in space refer to the collection of defunct objects orbiting the Earth. Examples of debris include non-operational satellites, rocket bodies, and fragments generated from explosions, collisions, or faulty payload assembly.

Loading next visibility...
Identifier
40845, 2011-077AA
Orbit
HEO
Country
Flag of CNCN / PRC
Related business
Manufacturer
CALT
Mission
Spacecraft
Bus & Motor
Unknown
Mass
Unknown
Launch date (UTC)
2011-12-19 (14 years ago)
Launch vehicle
Unknown
Launch site
Xichang Space Center, China (XSC)
Object type
Payload
Rocket body
Debris
Shape & HBR
Unknown shape, 0.2 m
Radar Cross Section
Medium (>0.1 m² and <1 m²)

Expand to show TLE details & history
Last TLE update: 13 hours ago

TLE from 13 hours ago
0 CZ-3B DEB
1 40845U 11077AA  26124.24840082  .00000632  00000-0  22593-2 0  9994
2 40845  21.6705 150.9477 7383632 165.4760 241.5985  2.07660358 91403
Epoch: 2026-05-04T05:57Z
TLE epoch observation values (Epoch: 2026-05-04T05:57:41.830Z)
Latitude
-0.00013°
Longitude
-160.55471°
Altitude
34,962.968 km
Speed
1.981 km/s
True Right ascension
10h 04m 02s
True Declination
0° 00' 00"
Sunlit
Object was in daylight at epoch
Visualization orbit readout
Latitude
Unknown
Longitude
Unknown
Altitude
Unknown
Speed
Unknown
Apparent Right ascension
Unknown
Apparent Declination
Unknown
Sunlit
N/A
Visualization observer readout
Local Sidereal Time
02:31:43
Azimuth
Unknown
Elevation
Unknown
Doppler factor
Unknown
Orbital elements
Apogee altitude
38,743.053 km
Perigee altitude
412.943 km
Semi-major axis
25,956.135 km
Eccentricity
0.73836
Inclination
21.6705°
RAAN
150.9477°
Arg. of periapsis
165.476°
True anomaly
194.56284°
Mean anomaly
241.5985°
Eccentric anomaly
216.45888°
Mean motion
0.51902 °/min
Orbital period
693.62 mins
BSTAR
0.0022593
Loading maneuver chart data...
Computing Atmospheric mass density...
Loading historical data...
Loading historical data...
Loading historical data...
Loading historical data...
Loading historical data...
Loading historical data...
Loading historical data...

Documentation

Showing up to 5 results
|